2024/02/10 00:00:00,46.7,-3.2
2024/02/10 00:10:00,46.7,-3.8
2024/02/10 00:20:00,46.7,-3.9
2024/02/10 00:30:00,46.7,-4.0
2024/02/10 00:40:00,46.7,-3.8
2024/02/10 00:50:00,46.7,-4.0
2024/02/10 01:00:00,46.6,-4.2
2024/02/10 01:10:00,46.6,-4.4
2024/02/10 01:20:00,46.6,-4.0
2024/02/10 01:30:00,46.6,-4.0
2024/02/10 01:40:00,46.7,-4.0
2024/02/10 01:50:00,46.7,-3.6
2024/02/10 02:00:00,46.7,-3.2
2024/02/10 02:10:00,46.7,-3.8
2024/02/10 02:20:00,46.6,-3.4
2024/02/10 02:30:00,46.6,-3.1
2024/02/10 02:40:00,46.7,-3.1
2024/02/10 02:50:00,46.7,-3.1
2024/02/10 03:00:00,46.6,-3.1
2024/02/10 03:10:00,46.6,-3.2
2024/02/10 03:20:00,46.6,-3.1
2024/02/10 03:30:00,46.6,-3.2
2024/02/10 03:40:00,46.6,-3.3
2024/02/10 03:50:00,46.7,-3.1
2024/02/10 04:00:00,46.6,-3.2
2024/02/10 04:10:00,46.6,-3.0
2024/02/10 04:20:00,46.6,-3.0
2024/02/10 04:30:00,46.6,-3.1
2024/02/10 04:40:00,46.6,-2.8
2024/02/10 04:50:00,46.6,-2.8
2024/02/10 05:00:00,46.7,-2.7
2024/02/10 05:10:00,46.8,-2.5
2024/02/10 05:20:00,46.8,-2.2
2024/02/10 05:30:00,46.8,-2.3
2024/02/10 05:40:00,46.9,-2.4
2024/02/10 05:50:00,46.9,-2.4
2024/02/10 06:00:00,46.9,-2.4
2024/02/10 06:10:00,46.9,-2.3
2024/02/10 06:20:00,46.9,-2.2
2024/02/10 06:30:00,46.9,-2.2
2024/02/10 06:40:00,46.9,-2.1
2024/02/10 06:50:00,47.1,-2.2
2024/02/10 07:00:00,47.6,-2.0
2024/02/10 07:10:00,47.7,-2.2
2024/02/10 07:20:00,47.7,-2.2
2024/02/10 07:30:00,47.6,-2.1
2024/02/10 07:40:00,47.6,-1.9
2024/02/10 07:50:00,47.5,-1.7
2024/02/10 08:00:00,47.3,-1.4
2024/02/10 08:10:00,47.0,-1.1
2024/02/10 08:20:00,47.2,-1.0
2024/02/10 08:30:00,46.9,-0.3
2024/02/10 08:40:00,47.0,-0.6
2024/02/10 08:50:00,46.7, 0.2
2024/02/10 09:00:00,47.0, 0.6
2024/02/10 09:10:00,47.6, 0.1
2024/02/10 09:20:00,47.9, 0.1
2024/02/10 09:30:00,48.0, 0.4
2024/02/10 09:40:00,47.9, 0.7
2024/02/10 09:50:00,46.9, 1.6
2024/02/10 10:00:00,46.8, 2.6
2024/02/10 10:10:00,47.1, 2.6
2024/02/10 10:20:00,47.5, 2.4
2024/02/10 10:30:00,47.3, 2.7
2024/02/10 10:40:00,---, 3.4
2024/02/10 10:50:00,---, 3.3
2024/02/10 11:00:00,46.6, 4.7
2024/02/10 11:10:00,46.2, 4.0
2024/02/10 11:20:00,45.9, 3.9
2024/02/10 11:30:00,45.9, 4.1
2024/02/10 11:40:00,45.9, 3.6
2024/02/10 11:50:00,45.4, 3.1
2024/02/10 12:00:00,45.7, 3.0
2024/02/10 12:10:00,45.9, 2.9
2024/02/10 12:20:00,45.2, 3.5
2024/02/10 12:30:00,45.1, 3.9
2024/02/10 12:40:00,45.5, 3.2
2024/02/10 12:50:00,45.7, 2.9
2024/02/10 13:00:00,45.8, 2.7
2024/02/10 13:10:00,45.7, 3.0
2024/02/10 13:20:00,45.7, 3.6
2024/02/10 13:30:00,45.5, 2.7
2024/02/10 13:40:00,45.4, 2.7
2024/02/10 13:50:00,45.5, 2.5
2024/02/10 14:00:00,44.9, 2.4
2024/02/10 14:10:00,45.0, 2.3
2024/02/10 14:20:00,45.2, 1.8
2024/02/10 14:30:00,45.3, 2.2
2024/02/10 14:40:00,45.8, 1.4
2024/02/10 14:50:00,46.8, 1.4
2024/02/10 15:00:00,46.9, 1.1
2024/02/10 15:10:00,47.0, 0.7
2024/02/10 15:20:00,47.6, 0.3
2024/02/10 15:30:00,48.2, 0.3
2024/02/10 15:40:00,48.9, 0.1
2024/02/10 15:50:00,49.2, 0.1
2024/02/10 16:00:00,49.4,-0.3
2024/02/10 16:10:00,49.6,-0.2
2024/02/10 16:20:00,49.7,-0.4
2024/02/10 16:30:00,49.9,-0.4
2024/02/10 16:40:00,50.3,-0.4
2024/02/10 16:50:00,50.2,-0.6
2024/02/10 17:00:00,50.4,-1.0
2024/02/10 17:10:00,50.2,-1.0
2024/02/10 17:20:00,50.1,-1.1
2024/02/10 17:30:00,50.0,-0.5
2024/02/10 17:40:00,50.3,-1.0
2024/02/10 17:50:00,50.7,-0.9
2024/02/10 18:00:00,50.7,-0.5
2024/02/10 18:10:00,50.7,-1.2
2024/02/10 18:20:00,50.7,-1.3
2024/02/10 18:30:00,50.6,-1.6
2024/02/10 18:40:00,50.8,-1.9
2024/02/10 18:50:00,50.8,-1.9
2024/02/10 19:00:00,50.8,-2.3
2024/02/10 19:10:00,50.8,-2.1
2024/02/10 19:20:00,50.8,-1.8
2024/02/10 19:30:00,50.8,-2.4
2024/02/10 19:40:00,50.7,-2.5
2024/02/10 19:50:00,50.7,-2.6
2024/02/10 20:00:00,50.7,-2.7
2024/02/10 20:10:00,50.7,-3.0
2024/02/10 20:20:00,50.7,-3.2
2024/02/10 20:30:00,50.6,-3.1
2024/02/10 20:40:00,50.7,-3.6
2024/02/10 20:50:00,50.7,-2.9
2024/02/10 21:00:00,50.7,-2.6
2024/02/10 21:10:00,50.7,-2.5
2024/02/10 21:20:00,50.7,-2.5
2024/02/10 21:30:00,50.8,-2.4
2024/02/10 21:40:00,50.8,-2.3
2024/02/10 21:50:00,50.9,-2.2
2024/02/10 22:00:00,51.8,-2.2
2024/02/10 22:10:00,52.4,-2.4
2024/02/10 22:20:00,52.4,-2.3
2024/02/10 22:30:00,52.3,-2.4
2024/02/10 22:40:00,52.4,-2.3
2024/02/10 22:50:00,52.5,-2.1
2024/02/10 23:00:00,52.4,-2.2
2024/02/10 23:10:00,52.3,-2.2
2024/02/10 23:20:00,52.4,-2.2
2024/02/10 23:30:00,52.7,-2.2
2024/02/10 23:40:00,53.4,-2.2
2024/02/10 23:50:00,53.8,-2.2
